Погода в Поронайске

Россия / Сахалинская область     49°13′13″N   143°05′22″E
темп.,
°C
ветер,
м/с
пор.,
м/с
влажн.,
%
обл.,
%
осадки,
мм/ч
давл.,
гПа
погр.,
м
14 мая, пт
пт1423:00+2ююв2397100 0.1 1013138
02:00+2юв119794 0.0 101337
05:00+2св119789 0.0 101218
08:00+3св119188 0.0 1012187
11:00+8вюв217493 0.0 1012479
14:00+10юв427012 0.0 1012480
17:00+8юв437541 0.3 1012305
20:00+5юв228925 0.2 1014161
15 мая, сб
сб1523:00+2ююв229775 0.3 1016102
02:00+2вюв229498 0.0 1017217
05:00+2юв2291100 0.1 1017249
08:00+2юв3488100 0.0 1017406
11:00+3ююв4687100 0.0 1016488
14:00+3ююв5891100 0.0 1013432
17:00+3ююв61195100 1.4 1010297
20:00+5ю71797100 4.6 1005746
16 мая, вс
вс1623:00+4ю71595100 10.3 1004536
02:00+5ю71197100 6.5 1000258
05:00+5ююз34944 6.6 99849
08:00+11юз613755 0.0 997882
11:00+13юз6126137 0.0 9981580
14:00+11юз5126936 0.3 9981325
17:00+15з7115348 0.3 9991801
20:00+12зсз35677 0.0 1000152
17 мая, пн
пн1723:00+8юз45765 0.0 100155
02:00+8юз33774 0.0 100139
05:00+7юз33760 0.0 100126
08:00+11ююз24640 0.0 1000116
11:00+19юз69395 0.0 9991184
14:00+21зюз712340 0.0 9982233
17:00+22зюз58310 0.0 9982367
20:00+17юз510475 0.0 998315
18 мая, вт
вт1823:00+13юз511494 0.0 998248
02:00+10з44611 0.0 99950
05:00+9з22712 0.0 99925
08:00+13зсз12610 0.0 1001148
11:00+18ссз23340 0.0 10021693
14:00+9ююв78720 0.0 1005299
17:00+9ююв68714 0.0 1007443
20:00+5ю588622 0.0 1008315